Location: Newark
(58.8333°N, 23.5833°E)
Time: 21:44:29
(UTC+00:00)

METEOR M2 - Pass Details

Date: 14 December 2019
Orbit: 819 x 827 km, 98.5° (Epoch: 19 January)

Event Time Altitude Azimuth Distance (km) Brightness Sun altitude
Exits shadow 14:57:56 12° 49° (NE) 2,299 ? -9.8°
Maximum altitude 14:59:15 13° 34° (NNE) 2,231 ? -9.9°
Drops below altitude 10° 15:01:32 10° 8° (N) 2,431 ? -10.2°
Sets 15:05:14 0° 342° (NNW) 3,367 ? -10.6°
